Flag for Poland Weather past 2 weeks in Olsztyn, Poland

Now
69 °F

Overcast.


Feels Like: 69 °F
Forecast: 61 / 91 °F
Wind: 2 mph from Northeast

Location: Ketrzyn

Current Time: Aug 1, 2014 at 11:32:17 AM

Latest Report: Aug 1, 2014 at 10:00 AM


Visibility: 18 mi

Pressure: 30.00 "Hg

Humidity: 77%

Dew point: 61 °F

Location of OlsztynLocation

Historic Weather in Olsztyn — Graph

°F

Olsztyn temperature yesterday

Maximum temperature yesterday: 76 °F (at 10:00 AM)
Minimum temperature yesterday: 67 °F (at 11:00 PM)
Average temperature yesterday: 72 °F

Past Weeks' High & Low Weather Summary

 TemperatureHumidityPressure
High90 °F (Jul 29, 2:00 PM)98% (Jul 19, 6:00 AM)30.21 "Hg (Jul 19, 6:00 AM)
Low53 °F (Jul 19, 3:00 AM)29% (Jul 26, 2:00 PM)29.73 "Hg (Jul 30, 6:00 PM)
Average72 °F63%29.99 "Hg
* Reported Jul 17 10:00 AM — Aug 1 10:00 AM, Olsztyn, Weather by CustomWeather, © 2014

Note: Actual official high and low records may vary slightly from our data, if they occured in-between our weather recording intervals... More about our weather records

Advertising

Olsztyn weather history for previous 24 hours

 ConditionsComfort  
Time TempWeatherWind HumidityBarometerVisibility
10:00 AM
Aug 1
69 °FOvercast.2 mph77%30.00 "Hg18 mi
9:00 AM67 °FOvercast.2 mph83%30.00 "Hg18 mi
8:00 AM65 °FOvercast.2 mph86%29.99 "Hg16 mi
7:00 AM64 °FOvercast.1 mph90%29.99 "Hg11 mi
6:00 AM64 °FOvercast.2 mph89%29.98 "Hg12 mi
5:00 AM64 °FOvercast.1 mph88%29.98 "Hg12 mi
4:00 AM64 °FOvercast.2 mph85%29.96 "Hg19 mi
3:00 AM65 °FOvercast.2 mph86%29.96 "Hg17 mi
2:00 AM66 °FOvercast.2 mph83%29.95 "Hg22 mi
1:00 AM66 °FOvercast.2 mph82%29.95 "Hg22 mi
12:00 AM66 °FOvercast.2 mph83%29.94 "Hg19 mi
11:00 PM
Jul 31
67 °FOvercast.2 mph80%29.92 "Hg25 mi
10:00 PM69 °FOvercast.2 mph77%29.91 "Hg31 mi
9:00 PM69 °FOvercast.2 mph78%29.90 "Hg28 mi
8:00 PM70 °FOvercast.2 mph77%29.89 "Hg22 mi
7:00 PM71 °FOvercast.3 mph76%29.88 "Hg19 mi
6:00 PM73 °FOvercast.3 mph74%29.86 "Hg19 mi
5:00 PM74 °FPartly sunny.3 mph77%29.85 "Hg14 mi
4:00 PM72 °FPartly sunny.2 mph88%29.85 "Hg14 mi
3:00 PM75 °FOvercast.2 mph75%29.83 "Hg14 mi
2:00 PM75 °FOvercast.3 mph76%29.83 "Hg15 mi
1:00 PM75 °FThunderstorms. Overcast.5 mph79%29.82 "Hg11 mi
12:00 PM72 °FThundershowers. Overcast.5 mph86%29.81 "Hg6 mi
11:00 AM76 °FOvercast.3 mph74%29.80 "Hg9 mi
Weather by CustomWeather, © 2014

See weather overviewHow to use our weather pages